Regional Weather Roundup
Issued by NWS Newport/Morehead, NC

Current Version | Previous Version | Graphics & Text | Print | Product List | Glossary On
Versions: 1 2 3 4 5 6 7 8 9 10 11 12 13 14 15 16 17 18 19 20 21 22 23 24 25 26 27 28 29 30 31 32 33 34 35 36 37 38 39 40 41 42 43 44 45 46 47 48 49 50
000 ASUS42 KMHX 291313 RWRMHX WEATHER ROUNDUP FOR EASTERN NORTH CAROLINA NATIONAL WEATHER SERVICE NEWPORT/MOREHEAD CITY NC 900 AM EDT SAT AUG 29 2015 NOTE: "FAIR" INDICATES FEW OR NO CLOUDS BELOW 12,000 FEET WITH NO SIGNIFICANT WEATHER AND/OR OBSTRUCTIONS TO VISIBILITY NCZ015>017-031-032-045>047-102-103-291400- NORTH COAST CITY SKY/WX TMP DP RH WIND PRES REMARKS EDENTON SUNNY 71 64 80 NE3 30.21S ELIZABETH CITY SUNNY 76 66 71 N6 30.21S KITTY HAWK SUNNY 79 66 64 NE6 30.18S MANTEO PTSUNNY 77 67 70 NE10 30.19S $$ NCZ045>047-081-094-103-104-291400- CENTRAL COAST CITY SKY/WX TMP DP RH WIND PRES REMARKS FRISCO MOSUNNY 79 72 79 NE14G22 30.15S SWANQUARTER NOT AVBL $$ NCZ095-097-098-100-101-291400- SOUTHERN COAST CITY SKY/WX TMP DP RH WIND PRES REMARKS BEAUFORT SUNNY 78 72 81 N14 30.16S CEDAR ISLAND NOT AVBL JACKSONVILLE SUNNY 74 66 76 N10 30.17F PINEY ISLAND SUNNY N/A N/A N/A N13G21 30.16S WILMINGTON SUNNY 74 67 78 N9 30.17F $$ NCZ011>013-027>030-043-044-078>080-089-090>093-098-291400- COASTAL PLAIN CITY SKY/WX TMP DP RH WIND PRES REMARKS AHOSKIE SUNNY 69 62 81 CALM 30.24R CLINTON MOSUNNY 71 66 85 CALM 30.21F ELIZABETHTOWN MOSUNNY 68 65 90 CALM 30.21R GOLDSBORO SUNNY 69 65 86 NE6 30.20S GREENVILLE SUNNY 68 64 88 N5 30.22S HAVELOCK MOSUNNY 76 68 76 NE15 30.18S KENANSVILLE N/A 70 65 85 NE3 30.22S KINSTON SUNNY 70 64 83 N6 30.22S NEW BERN SUNNY 74 66 76 NE10 30.20S RICHLANDS MOSUNNY 72 63 73 N10 30.19S ROCKY MOUNT SUNNY 72 63 73 NE5 30.23S WASHINGTON SUNNY 72 65 81 NE6 30.21R WHITEVILLE PTSUNNY 70 65 85 NE5 30.19S $$ AMZ130-135-150-152-154-156-158-170-250-252-270-ANZ085-086-088-633-658-670-291400- MARINE OBSERVATIONS STATION/POSITION TIME TEMP WIND PRES WAVE SWELL AIR SEA DIR/SP/G HT/PER HT/PER (UTC) (F) (DEG/KT/KT) (MB) (FT/S) (FT/S) CHESAPEAKE LIGHT 1300 76 60/ 11/ 12 1023.9 64 E VA BEACH 1250 76 78 50/ 10/ 14 1022.1 4/11 3/11 DUCK NOT AVBL 2 E DUCK 1211 78 N/A 4/12 2/12 OREGON INLET NOT AVBL 13E OREGON INLT 1300 78 N/A 4/11 2/11 HATTERAS CG NOT AVBL DIAMOND BUOY 1250 79 82 40/ 17/ 19 1020.3 5/11 3/11 CAPE LOOKOUT 1300 78 20/ 16/ 18 1020.8 BEAUFORT LAB NOT AVBL 30 SE NEW RVR IN 1208 80 81 50/ 17/ 21 1021.1 30 SE NEW RVR IN 1225 81 N/A 5/ 5 2/11 27 SE WRIGHTSVLE 1200 76 81 50/ 16/ 17 N/A 5 SE WRIGHTSVLE 1208 73 82 10/ 14/ 17 1021.3 225 S CAPE HAT 1250 83 83 200/ 12/ 16 1020.2 5/11 5/11 41 SE CHARLESTON 1250 81 85 70/ 14/ 17 1019.7 4/ 7 2/ 8 $$

USA.gov is the U.S. government's official web portal to all federal, state and local government web resources and services.